[[{"header":{"parameterUnit":"m.s-1","parameterCategory":1,"la1":30.2992,"la2":30.254,"lo1":-89.0895,"lo2":-89.0443,"dy":0.0025,"dx":0.0025,"nx":19,"ny":19,"refTime":"2026-03-27T21:00:00:Z","depth":0,"parameterNumber":2,"parameterNumberName":"U-component_of_WINDS"},"data":[0,0,0,-7.3114,-7.3116,-7.3235,-7.3235,-7.3413,-7.3415,0,0,0,0,0,0,0,0,0,0,0,-7.3094,-7.3096,-7.3113,-7.3117,-7.3235,-7.3235,-7.3412,-7.3415,0,0,0,0,0,0,0,0,0,0,0,-7.3093,-7.3095,-7.3098,-7.3117,-7.3235,-7.3235,-7.3412,-7.3313,0,0,0,0,0,0,0,0,0,0,-7.3194,-7.3191,-7.3095,-7.3098,-7.3118,-7.3235,-7.3235,-7.3308,-7.3319,-7.337,0,-7.342,0,-7.3421,-7.3428,-7.3429,0,0,0,-7.3105,-7.3182,-7.32,-7.3098,-7.3119,-7.3235,-7.3178,-7.3314,-7.3327,-7.3386,-7.3422,-7.3428,-7.3423,-7.3429,-7.343,-7.3766,-7.3768,0,0,-7.3098,-7.3123,-7.3191,-7.3209,-7.3193,-7.3175,-7.3182,-7.3321,-7.3363,-7.3423,-7.3432,-7.3426,-7.3431,-7.3432,-7.3764,-7.3767,0,0,0,-7.3087,-7.3119,-7.3133,-7.3202,-7.3222,-7.3178,-7.3187,-7.3356,-7.3359,-7.3433,-7.3428,-7.3432,-7.3434,-7.3762,-7.3765,-7.3894,0,0,0,-7.3083,-7.3113,-7.3131,-7.3148,-7.322,-7.3291,-7.3219,-7.3349,-7.3364,-7.3428,-7.3432,-7.3436,-7.3759,-7.3763,-7.3885,-7.3949,0,0,0,-7.3081,-7.3113,-7.3135,-7.3149,-7.3201,-7.3288,-7.3298,-7.3352,-7.3362,-7.3429,-7.3437,-7.3758,-7.3763,-7.3878,-7.3937,-7.4044,0,0,0,-7.3086,-7.3248,-7.3138,-7.3317,-7.32,-7.3368,-7.3297,-7.342,-7.3493,-7.3433,-7.376,-7.3765,-7.3875,-7.3929,-7.4036,-7.4137,-7.4183,0,0,-7.3304,-7.3275,-7.3379,-7.3284,-7.3478,-7.3348,-7.3561,-7.3603,-7.3586,-7.3707,-7.3715,-7.3888,-7.3936,-7.4043,-7.4433,-7.447,0,0,0,-7.3456,-7.3531,-7.3577,-7.3648,-7.3687,-7.3724,-7.3732,-7.3748,-7.385,-7.3654,-7.3957,-7.3985,-7.4046,-7.4093,-7.4124,-7.4174,-7.3788,-7.3788,-7.3787,-7.3798,-7.377,-7.394,-7.3927,-7.3998,-7.4006,-7.4061,-7.4084,-7.4033,-7.4106,-7.414,-7.4381,-7.4437,-7.446,-7.4513,-7.4194,-7.4195,-7.4195,-7.4195,-7.4113,-7.4213,-7.4146,-7.4286,-7.4256,-7.4373,-7.439,-7.4351,-7.4455,-7.4352,-7.4405,-7.4291,-7.45,-7.4545,-7.4205,-7.4203,-7.4202,-7.4201,-7.42,-7.433,-7.4373,-7.4393,-7.4496,-7.4579,-7.4561,-7.4666,-7.4635,-7.4606,-7.4659,-7.4692,-7.4689,-7.4681,-7.4678,-7.4679,-7.468,-7.468,-7.4681,-7.4681,-7.4546,-7.4565,-7.4656,-7.4714,-7.4758,-7.4811,-7.4825,-7.4867,-7.4905,-7.4874,-7.4875,-7.4816,-7.4528,-7.4454,-7.4694,-7.4692,-7.469,-7.4689,-7.4688,-7.4869,-7.4793,-7.4935,-7.4979,-7.5045,-7.513,-7.5092,-7.5181,-7.5212,-7.5265,-7.5198,-7.499,-7.4957,-7.4932,-7.4871,-7.5204,-7.5204,-7.5204,-7.5204,-7.505,-7.5033,-7.5172,-7.5245,-7.5313,-7.5295,-7.5457,-7.5472,-7.5474,-7.5491,-7.544,-7.5357,-7.5334,-7.5314,-7.5281,-7.5223,-7.5639,-7.564,-7.564,-7.5247,-7.5235,-7.5378,-7.5381,-7.5432,-7.5477,-7.5629,-7.5715,-7.5702,-7.5657,-7.5504,-7.5486,-7.5352,-7.531,-7.5256,-7.5205,-7.5098,0,0]},{"header":{"parameterUnit":"m.s-1","parameterCategory":1,"la1":30.2992,"la2":30.254,"lo1":-89.0895,"lo2":-89.0443,"dy":0.0025,"dx":0.0025,"nx":19,"ny":19,"refTime":"2026-03-27T21:00:00:Z","depth":0,"parameterNumber":3,"parameterNumberName":"V-component_of_WINDS"},"data":[0,0,0,2.0833,2.0833,2.0858,2.0858,2.0872,2.0872,0,0,0,0,0,0,0,0,0,0,0,2.0816,2.0816,2.0833,2.0833,2.0858,2.0858,2.0872,2.0872,0,0,0,0,0,0,0,0,0,0,0,2.0817,2.0816,2.0816,2.0833,2.0857,2.0858,2.0872,2.0859,0,0,0,0,0,0,0,0,0,0,2.0838,2.0814,2.0816,2.0816,2.0834,2.0857,2.0858,2.0859,2.086,2.0854,0,2.0847,0,2.086,2.0872,2.0872,0,0,0,2.084,2.0813,2.0829,2.0816,2.0834,2.0857,2.0848,2.086,2.0861,2.0855,2.0847,2.0848,2.086,2.0872,2.0872,2.0819,2.0819,0,0,2.0838,2.0815,2.0828,2.0829,2.0825,2.0848,2.0849,2.0861,2.085,2.0847,2.0849,2.086,2.0872,2.0872,2.082,2.0819,0,0,0,2.083,2.0814,2.083,2.0828,2.0834,2.0848,2.085,2.0849,2.0856,2.0849,2.086,2.0872,2.0872,2.0821,2.082,2.077,0,0,0,2.083,2.0809,2.0829,2.0814,2.0833,2.0842,2.0838,2.0855,2.0858,2.086,2.0872,2.0872,2.0821,2.082,2.0773,2.075,0,0,0,2.0818,2.0808,2.0809,2.0813,2.0823,2.0842,2.085,2.0857,2.0864,2.0872,2.0872,2.0822,2.082,2.0775,2.0754,2.0729,0,0,0,2.0798,2.0762,2.0807,2.0772,2.0823,2.0813,2.085,2.0844,2.0844,2.0872,2.0821,2.082,2.0776,2.0756,2.0732,2.0704,2.069,0,0,2.074,2.0754,2.0736,2.0777,2.0753,2.0811,2.078,2.0801,2.0822,2.0819,2.0818,2.0772,2.0754,2.073,2.0626,2.0615,0,0,0,2.0709,2.0695,2.0694,2.0695,2.0713,2.0726,2.0756,2.0765,2.0764,2.0816,2.0758,2.0748,2.0735,2.0722,2.0713,2.0703,2.0814,2.0814,2.0814,2.059,2.0623,2.0594,2.063,2.063,2.0664,2.0667,2.0684,2.0714,2.07,2.0698,2.0631,2.0616,2.0609,2.0598,2.0687,2.0687,2.0687,2.0687,2.0506,2.0492,2.0537,2.0525,2.056,2.055,2.0582,2.0604,2.0599,2.0634,2.0624,2.0658,2.0596,2.0588,2.0684,2.0684,2.0685,2.0685,2.0685,2.043,2.0429,2.0443,2.045,2.0452,2.049,2.0485,2.0516,2.0545,2.0536,2.0538,2.0538,2.0542,2.0535,2.0535,2.0535,2.0535,2.0534,2.0534,2.0345,2.0363,2.0355,2.0374,2.0381,2.0393,2.043,2.0436,2.0452,2.0475,2.0475,2.0506,2.0585,2.0603,2.0531,2.0531,2.0532,2.0532,2.0532,2.0245,2.0274,2.0262,2.0269,2.0295,2.0296,2.0338,2.035,2.0361,2.0357,2.0393,2.0447,2.0463,2.047,2.0485,2.0386,2.0386,2.0386,2.0386,2.0179,2.0193,2.0189,2.0198,2.0211,2.0249,2.0235,2.0264,2.0298,2.0307,2.0327,2.035,2.0357,2.0369,2.0379,2.0393,2.0273,2.0273,2.0273,2.0119,2.0136,2.0117,2.0154,2.0178,2.0198,2.0186,2.0195,2.0239,2.0269,2.0314,2.0319,2.0358,2.0369,2.0396,2.041,2.0438,0,0]}]]